Temp
-8 -8 -8 -8 -8 -8 -8 -8 -8 -8 -9 -9 -9 -9 -8 -9 -8 -9 -8 -8 -8 -8 -7 -7 -7 -7 -7 -6 -6 -6 -6 -6 -7 -5 -5 -4 -4 -4 -4 -4 -4 -5 -4 -4 -4
-8 -8 -8 -8 -8 -8 -8 -8 -8 -8 -8 -9 -9 -9 -9 -9 -9 -9 -9 -8 -8 -8 -8 -7 -8 -7 -7 -7 -6 -6 -6 -7 -8 -6 -5 -4 -4 -4 -4 -4 -4 -4 -4 -4 -4
-8 -8 -8 -8 -8 -8 -8 -8 -8 -9 -8 -8 -9 -9 -9 -9 -9 -8 -9 -9 -8 -8 -8 -7 -8 -8 -7 -8 -8 -8 -7 -7 -8 -5 -4 -4 -4 -4 -4 -4 -4 -4 -5 -4 -4
-7 -7 -8 -8 -8 -8 -8 -8 -8 -9 -9 -8 -8 -8 -8 -9 -9 -8 -9 -9 -9 -8 -8 -7 -8 -8 -9 -8 -7 -6 -6 -8 -5 -4 -4 -4 -3 -3 -4 -3 -3 -4 -4 -5 -5
-7 -8 -7 -8 -8 -8 -8 -8 -8 -8 -9 -9 -9 -8 -8 -8 -9 -8 -8 -9 -9 -9 -9 -8 -8 -8 -9 -8 -7 -8 -7 -7 -5 -5 -4 -4 -4 -4 -4 -4 -4 -4 -4 -5 -5
-7 -7 -7 -7 -7 -8 -8 -8 -8 -8 -8 -8 -9 -9 -8 -8 -8 -8 -8 -8 -9 -9 -9 -8 -8 -8 -8 -9 -7 -7 -8 -6 -5 -5 -4 -4 -4 -4 -4 -3 -3 -4 -4 -5 -5
-7 -7 -7 -7 -7 -8 -8 -8 -8 -8 -8 -8 -8 -9 -9 -9 -8 -8 -8 -8 -9 -9 -9 -8 -8 -8 -8 -9 -7 -9 -8 -6 -5 -4 -4 -5 -4 -5 -4 -4 -4 -4 -4 -4 -5
-7 -7 -7 -7 -7 -7 -7 -8 -8 -8 -8 -8 -8 -8 -8 -9 -8 -8 -8 -8 -8 -9 -9 -8 -8 -8 -8 -8 -8 -9 -8 -7 -6 -4 -3 -4 -4 -5 -4 -5 -5 -5 -5 -4 -5
-8 -8 -7 -7 -7 -7 -7 -7 -8 -8 -8 -8 -8 -8 -8 -8 -9 -9 -8 -8 -8 -8 -8 -8 -8 -8 -8 -8 -8 -8 -7 -7 -6 -7 -4 -4 -5 -4 -5 -5 -5 -5 -5 -5 -4
-9 -9 -8 -8 -8 -7 -8 -7 -7 -8 -8 -8 -8 -8 -8 -8 -9 -8 -8 -8 -8 -8 -8 -8 -8 -7 -7 -9 -7 -6 -7 -6 -7 -7 -5 -7 -6 -4 -5 -5 -5 -5 -5 -5 -5
-11 -11 -10 -10 -10 -9 -8 -8 -7 -7 -8 -8 -8 -8 -8 -7 -8 -8 -8 -8 -8 -8 -8 -8 -8 -7 -7 -8 -7 -7 -7 -7 -7 -8 -6 -8 -8 -4 -5 -5 -5 -5 -5 -5 -5
-13 -13 -13 -13 -12 -11 -10 -9 -8 -8 -7 -8 -8 -8 -8 -7 -8 -8 -8 -8 -8 -8 -8 -8 -7 -7 -7 -9 -8 -7 -7 -7 -7 -7 -7 -8 -7 -8 -5 -5 -5 -5 -5 -5 -5
-14 -14 -15 -15 -15 -14 -12 -11 -10 -9 -8 -8 -8 -7 -8 -8 -7 -8 -8 -8 -8 -8 -8 -8 -7 -7 -7 -8 -9 -8 -7 -7 -7 -7 -7 -6 -6 -6 -5 -5 -5 -5 -5 -5 -5
-13 -14 -14 -15 -15 -15 -15 -13 -12 -11 -9 -8 -8 -8 -8 -8 -7 -8 -8 -8 -8 -8 -8 -8 -8 -9 -7 -8 -9 -8 -8 -7 -8 -7 -7 -7 -6 -6 -6 -5 -5 -4 -4 -4 -4
-13 -14 -14 -14 -14 -14 -15 -15 -14 -13 -11 -10 -8 -7 -8 -7 -8 -8 -8 -8 -8 -7 -8 -7 -8 -8 -8 -7 -9 -8 -8 -7 -8 -7 -7 -6 -6 -6 -6 -5 -4 -4 -4 -4 -3
-14 -14 -14 -14 -14 -14 -15 -15 -15 -15 -13 -12 -10 -9 -8 -8 -8 -8 -8 -8 -8 -8 -7 -8 -8 -8 -7 -6 -7 -8 -8 -7 -8 -7 -6 -6 -6 -5 -5 -5 -4 -4 -4 -4 -4
-14 -14 -14 -14 -14 -14 -15 -15 -15 -16 -15 -15 -13 -10 -9 -9 -8 -8 -8 -8 -8 -8 -7 -7 -7 -7 -7 -9 -9 -9 -8 -7 -7 -7 -6 -6 -6 -6 -6 -6 -5 -4 -4 -4 -4
-15 -15 -15 -15 -15 -15 -15 -16 -15 -15 -16 -16 -14 -11 -11 -10 -9 -8 -8 -8 -8 -8 -8 -7 -7 -7 -7 -8 -8 -9 -8 -7 -7 -6 -5 -6 -6 -6 -6 -6 -5 -4 -4 -3 -4
-15 -15 -15 -16 -16 -16 -16 -16 -16 -17 -18 -16 -14 -13 -13 -12 -10 -9 -8 -8 -8 -8 -8 -9 -6 -7 -7 -6 -7 -8 -8 -7 -6 -6 -6 -7 -6 -6 -6 -6 -6 -5 -3 -3 -4
-16 -16 -16 -17 -17 -18 -18 -17 -17 -16 -15 -16 -16 -15 -14 -13 -12 -10 -9 -8 -9 -8 -8 -9 -9 -9 -7 -7 -7 -8 -8 -8 -7 -7 -6 -7 -6 -5 -6 -6 -6 -5 -4 -4 -3
-16 -17 -16 -18 -19 -19 -19 -19 -19 -17 -16 -16 -16 -16 -15 -15 -14 -12 -11 -10 -11 -10 -9 -9 -10 -9 -9 -7 -6 -7 -8 -8 -7 -6 -7 -7 -6 -5 -6 -6 -6 -4 -4 -3 -3
-16 -18 -18 -19 -19 -20 -20 -22 -18 -18 -18 -17 -17 -16 -15 -15 -14 -12 -11 -14 -10 -9 -8 -8 -10 -9 -9 -8 -6 -7 -8 -8 -7 -7 -6 -7 -6 -6 -5 -6 -5 -4 -4 -3 -3
-17 -18 -19 -20 -20 -22 -22 -20 -20 -19 -19 -18 -17 -17 -16 -16 -15 -13 -15 -10 -9 -10 -9 -8 -9 -10 -9 -9 -7 -6 -8 -8 -7 -7 -7 -7 -7 -7 -6 -5 -5 -4 -5 -4 -3
-18 -19 -19 -20 -21 -22 -22 -21 -20 -20 -19 -18 -18 -17 -17 -16 -15 -14 -13 -11 -10 -9 -8 -9 -8 -10 -9 -8 -7 -6 -8 -8 -8 -7 -6 -6 -7 -7 -7 -6 -5 -4 -4 -4 -4
-18 -19 -20 -21 -21 -22 -21 -21 -21 -21 -20 -19 -19 -18 -18 -16 -15 -14 -14 -13 -11 -10 -10 -9 -9 -8 -7 -9 -8 -8 -6 -8 -8 -7 -7 -6 -7 -7 -7 -6 -5 -5 -4 -4 -4
-18 -19 -21 -21 -22 -22 -22 -22 -22 -22 -21 -21 -20 -22 -19 -19 -20 -19 -17 -15 -14 -12 -11 -10 -9 -9 -8 -9 -9 -8 -8 -7 -8 -8 -7 -6 -6 -7 -7 -6 -6 -5 -4 -4 -4
-19 -20 -21 -21 -22 -22 -22 -22 -22 -22 -22 -22 -21 -21 -21 -21 -22 -20 -17 -15 -12 -10 -10 -9 -9 -9 -8 -8 -9 -9 -8 -8 -7 -8 -7 -7 -6 -6 -7 -7 -6 -6 -5 -5 -4
Height
5864 5865 5865 5866 5866 5868 5870 5871 5873 5875 5877 5879 5881 5883 5885 5887 5889 5890 5891 5893 5895 5896 5898 5899 5901 5901 5900 5901 5902 5905 5907 5910 5910 5905 5904 5905 5904 5904 5903 5905 5906 5906 5907 5908 5909
5861 5862 5862 5863 5864 5865 5867 5869 5871 5872 5874 5876 5878 5881 5883 5885 5887 5889 5891 5892 5894 5896 5898 5900 5901 5901 5901 5901 5903 5906 5912 5910 5909 5908 5903 5903 5903 5904 5905 5905 5906 5906 5907 5908 5910
5858 5858 5859 5860 5860 5862 5863 5865 5867 5869 5871 5873 5875 5878 5881 5883 5886 5885 5888 5891 5893 5895 5897 5899 5901 5901 5902 5904 5905 5907 5908 5908 5906 5904 5903 5903 5903 5904 5905 5905 5905 5906 5907 5909 5910
5854 5854 5854 5855 5856 5857 5859 5861 5862 5865 5868 5870 5872 5874 5876 5880 5883 5883 5886 5889 5891 5893 5896 5898 5900 5901 5905 5908 5906 5903 5905 5905 5902 5904 5904 5904 5904 5904 5906 5906 5905 5905 5907 5908 5910
5848 5849 5850 5850 5851 5852 5854 5856 5858 5860 5862 5865 5868 5871 5873 5875 5878 5881 5883 5886 5889 5891 5894 5896 5899 5901 5904 5908 5906 5910 5903 5902 5902 5903 5904 5905 5905 5906 5906 5906 5905 5905 5905 5907 5909
5842 5842 5843 5844 5845 5846 5848 5850 5852 5854 5856 5859 5863 5865 5868 5872 5870 5878 5880 5883 5886 5889 5891 5894 5897 5899 5901 5903 5902 5905 5903 5903 5903 5903 5904 5905 5906 5905 5905 5905 5905 5905 5905 5906 5907
5833 5834 5836 5836 5838 5839 5842 5844 5846 5848 5850 5853 5856 5858 5860 5869 5869 5873 5876 5879 5883 5886 5888 5891 5894 5897 5898 5902 5902 5903 5903 5904 5906 5905 5904 5905 5906 5906 5905 5905 5905 5905 5905 5905 5906
5822 5825 5826 5827 5829 5830 5833 5836 5839 5840 5843 5846 5849 5851 5853 5859 5864 5868 5871 5874 5878 5882 5885 5888 5891 5895 5898 5899 5902 5905 5909 5910 5908 5908 5906 5906 5904 5905 5905 5905 5905 5904 5904 5904 5904
5809 5811 5814 5816 5818 5820 5824 5826 5830 5832 5835 5839 5842 5843 5850 5851 5859 5863 5864 5870 5874 5877 5882 5885 5888 5892 5896 5899 5904 5906 5910 5907 5886 5907 5905 5904 5894 5904 5904 5905 5904 5903 5902 5902 5903
5797 5798 5800 5802 5805 5808 5812 5816 5819 5822 5826 5830 5833 5837 5843 5848 5849 5853 5861 5865 5869 5874 5877 5881 5885 5889 5893 5898 5903 5906 5912 5908 5916 5908 5903 5904 5904 5904 5904 5903 5903 5902 5902 5901 5902
5783 5784 5787 5789 5791 5794 5798 5803 5809 5811 5817 5820 5822 5829 5831 5836 5845 5850 5853 5859 5864 5867 5870 5878 5879 5883 5891 5894 5901 5899 5902 5909 5910 5907 5903 5907 5910 5904 5904 5903 5903 5901 5901 5901 5903
5776 5773 5773 5775 5779 5781 5784 5787 5793 5797 5804 5808 5813 5820 5822 5830 5835 5840 5846 5851 5855 5860 5869 5872 5871 5883 5887 5892 5896 5892 5902 5907 5908 5907 5904 5907 5911 5907 5904 5904 5903 5902 5901 5902 5904
5771 5769 5767 5767 5768 5769 5772 5775 5778 5782 5788 5796 5802 5809 5815 5819 5827 5832 5838 5845 5848 5856 5861 5865 5873 5880 5882 5887 5892 5898 5903 5907 5907 5903 5903 5905 5907 5907 5904 5904 5904 5903 5902 5903 5904
5766 5764 5762 5761 5762 5760 5761 5763 5766 5768 5774 5786 5789 5798 5804 5812 5816 5825 5829 5837 5840 5848 5856 5860 5869 5873 5878 5881 5889 5895 5899 5902 5904 5906 5908 5904 5908 5901 5903 5904 5904 5903 5903 5904 5906
5758 5755 5753 5752 5752 5752 5753 5753 5755 5758 5764 5767 5772 5783 5793 5801 5816 5813 5823 5827 5832 5841 5848 5853 5860 5866 5871 5877 5885 5892 5898 5901 5900 5902 5905 5902 5907 5909 5902 5902 5903 5903 5904 5905 5907
5750 5746 5744 5743 5741 5743 5743 5745 5747 5749 5748 5758 5760 5771 5781 5791 5800 5803 5810 5818 5826 5832 5838 5847 5856 5861 5869 5878 5881 5888 5894 5896 5898 5900 5902 5904 5907 5908 5904 5901 5902 5902 5903 5905 5907
5740 5736 5733 5731 5730 5730 5731 5734 5737 5737 5745 5749 5749 5756 5766 5778 5787 5793 5801 5807 5812 5819 5827 5838 5846 5854 5862 5869 5875 5880 5889 5893 5896 5897 5898 5899 5901 5904 5891 5900 5900 5901 5902 5904 5906
5729 5725 5722 5720 5718 5717 5718 5721 5724 5732 5736 5729 5735 5746 5757 5765 5771 5780 5788 5796 5804 5813 5825 5832 5837 5844 5852 5857 5867 5872 5883 5888 5892 5895 5897 5892 5895 5898 5884 5902 5899 5899 5901 5903 5905
5717 5713 5711 5708 5705 5703 5703 5705 5712 5712 5713 5714 5726 5738 5746 5752 5763 5769 5779 5788 5797 5805 5814 5824 5833 5843 5848 5856 5861 5868 5871 5885 5889 5886 5884 5880 5892 5896 5894 5896 5897 5898 5899 5902 5904
5706 5701 5697 5692 5688 5687 5688 5690 5691 5692 5704 5710 5717 5723 5732 5743 5749 5756 5766 5777 5787 5796 5808 5818 5828 5834 5840 5848 5853 5861 5873 5875 5879 5884 5876 5879 5880 5891 5892 5895 5894 5895 5896 5900 5903
5695 5688 5685 5675 5673 5671 5673 5674 5674 5679 5688 5695 5704 5711 5719 5726 5728 5744 5756 5768 5774 5781 5793 5805 5817 5828 5833 5830 5843 5852 5860 5867 5877 5881 5880 5876 5874 5894 5890 5893 5889 5892 5894 5898 5901
5684 5676 5671 5663 5660 5658 5658 5658 5663 5669 5674 5681 5689 5698 5706 5713 5719 5731 5744 5740 5754 5769 5780 5789 5805 5814 5824 5830 5840 5847 5854 5862 5868 5873 5878 5875 5881 5876 5888 5886 5888 5890 5891 5894 5898
5674 5666 5658 5653 5650 5647 5647 5648 5651 5656 5662 5668 5675 5684 5692 5700 5709 5722 5723 5726 5743 5758 5766 5783 5788 5805 5815 5824 5827 5834 5845 5855 5864 5870 5873 5873 5874 5874 5881 5882 5885 5887 5889 5891 5896
5663 5655 5649 5644 5641 5640 5639 5641 5643 5647 5651 5655 5661 5668 5677 5686 5694 5703 5715 5720 5733 5744 5759 5770 5779 5791 5805 5816 5824 5825 5835 5846 5855 5861 5868 5871 5868 5876 5880 5878 5882 5885 5887 5891 5896
5655 5648 5642 5637 5633 5633 5633 5634 5636 5638 5641 5644 5650 5655 5662 5672 5682 5693 5702 5711 5724 5734 5750 5759 5771 5786 5799 5814 5820 5823 5828 5838 5844 5854 5861 5867 5865 5857 5877 5877 5880 5883 5886 5890 5895
5646 5640 5635 5630 5627 5628 5628 5628 5629 5630 5633 5635 5639 5639 5647 5654 5666 5681 5687 5693 5707 5712 5734 5744 5761 5775 5788 5799 5811 5818 5821 5829 5839 5846 5855 5861 5867 5872 5872 5874 5879 5882 5884 5889 5892
5638 5632 5628 5625 5621 5623 5622 5621 5621 5622 5622 5623 5625 5629 5635 5642 5648 5652 5657 5672 5692 5709 5725 5737 5754 5764 5774 5790 5800 5806 5813 5820 5832 5840 5849 5854 5860 5868 5864 5872 5876 5881 5884 5887 5890
Wind_Speed
14 13 13 15 15 16 20 21 19 21 24 25 26 25 21 18 17 14 12 10 10 11 9 11 6 4 1 2 5 10 13 3 3 2 5 11 11 12 10 9 8 5 6 6 8
16 17 16 15 17 18 20 22 22 21 24 27 27 25 23 20 18 17 14 11 10 14 10 11 6 3 3 2 5 5 0 4 6 12 12 11 8 9 10 10 9 8 6 8 11
14 18 19 19 18 19 22 23 24 24 24 27 29 28 27 24 20 22 18 14 13 15 12 12 6 2 3 3 1 2 5 5 3 5 3 4 3 3 4 8 10 11 11 10 11
18 18 17 21 22 21 22 25 26 26 27 28 30 29 27 26 25 23 21 18 15 14 15 13 8 5 8 2 1 4 8 6 4 6 4 4 2 2 5 6 6 10 13 12 12
22 21 22 22 21 25 25 24 27 29 29 30 32 32 32 31 29 25 23 21 18 15 14 14 11 8 2 2 1 3 7 6 7 8 5 3 1 2 4 6 8 9 11 12 12
30 28 26 25 26 25 25 28 27 30 31 33 34 35 34 32 35 26 27 25 22 19 15 17 17 13 8 7 8 11 4 6 8 6 5 2 1 3 4 7 9 11 11 12 15
36 35 34 32 30 29 28 27 31 31 31 34 35 38 40 33 34 29 28 28 26 23 20 19 20 19 14 6 10 7 4 4 6 5 4 3 5 4 6 6 8 10 12 13 15
43 42 40 39 38 36 33 32 31 32 35 34 36 39 39 40 38 33 31 31 29 28 24 21 21 20 15 13 9 8 7 5 14 7 5 4 7 7 7 7 7 9 10 15 16
44 45 46 46 45 43 41 39 36 35 34 38 37 39 36 40 39 39 36 30 31 31 28 25 24 22 20 14 5 6 8 16 4 10 7 6 14 8 8 9 7 7 10 13 17
47 47 47 49 51 51 48 47 44 41 39 37 40 41 38 38 42 45 40 34 32 32 34 29 26 25 25 16 10 13 10 9 11 21 9 7 9 7 9 9 8 6 8 11 15
40 46 46 46 50 53 55 53 51 50 45 43 44 39 44 40 37 41 45 41 37 36 37 32 31 31 28 22 18 21 17 13 13 14 13 8 8 9 9 8 8 5 7 11 16
24 29 34 37 40 47 50 55 57 56 53 49 46 42 44 41 41 42 45 47 45 40 34 37 37 28 29 23 22 25 7 17 11 22 18 9 13 16 6 8 9 7 6 11 15
22 23 24 23 25 34 40 47 52 59 59 55 52 46 44 43 43 44 45 45 49 43 38 40 32 28 29 27 24 21 17 13 12 17 17 11 10 13 12 10 8 7 6 10 14
28 28 29 30 30 31 30 37 44 49 61 57 55 53 50 44 45 45 45 45 49 47 41 40 35 31 30 30 26 22 19 18 17 16 11 23 11 9 19 11 10 5 7 10 13
33 36 36 36 34 34 34 31 35 41 48 53 62 58 53 50 41 47 46 47 48 48 48 43 40 39 33 31 28 27 19 20 18 15 15 18 13 7 25 12 12 10 9 11 14
37 39 39 39 39 37 35 36 32 37 47 43 56 56 55 52 50 50 48 50 47 48 51 49 41 40 30 21 25 26 22 20 20 15 19 17 19 11 18 17 15 14 12 11 14
38 41 42 42 43 41 37 36 36 37 34 35 43 55 54 55 54 54 49 51 54 53 53 52 49 42 37 34 31 31 27 26 20 20 18 18 21 21 23 15 17 16 16 14 14
25 29 34 34 38 41 39 37 37 37 28 36 48 51 47 50 57 58 56 52 52 53 48 50 54 50 45 41 36 35 33 29 22 15 15 27 22 24 11 14 16 17 18 16 16
32 33 39 41 45 42 41 40 38 33 37 49 47 44 46 41 54 58 57 54 51 53 52 39 51 47 48 41 40 35 41 32 24 22 17 35 12 16 16 18 16 18 19 19 20
37 40 41 46 46 39 40 39 42 48 45 46 41 39 45 46 46 56 61 58 52 51 50 44 33 40 47 47 45 39 33 36 32 29 31 23 22 19 16 14 17 22 21 21 25
40 43 42 43 34 32 37 36 39 46 42 46 47 44 45 42 52 52 51 50 52 51 52 53 33 33 36 54 52 47 40 37 29 27 27 22 8 17 16 14 26 23 22 24 27
40 39 39 35 28 28 34 30 39 37 40 42 47 48 48 52 57 57 46 46 64 62 61 60 40 37 43 44 49 47 43 37 36 32 27 25 18 18 24 29 21 21 19 21 31
38 37 35 28 25 16 22 34 32 32 35 39 42 45 49 52 57 57 52 68 70 64 63 59 61 36 34 41 48 53 45 40 35 30 30 30 15 15 21 31 24 22 17 24 31
36 34 31 23 23 18 22 20 23 26 30 35 36 40 46 54 57 64 63 69 67 68 65 61 63 51 45 41 44 52 45 42 37 38 30 30 25 25 13 22 23 19 20 24 27
33 32 27 23 22 20 18 21 19 20 25 27 27 32 38 48 58 68 67 65 65 64 63 65 60 58 54 36 34 41 52 42 44 38 36 34 37 23 16 23 21 18 22 24 25
31 32 23 21 18 20 20 20 22 23 25 27 28 33 40 54 53 53 63 66 61 70 61 69 63 59 59 46 37 34 42 50 42 42 38 31 26 23 19 22 21 20 23 27 28
30 29 20 16 12 16 22 22 24 27 29 31 34 35 38 53 50 61 73 78 73 72 66 68 64 62 63 57 35 39 43 46 47 42 39 40 31 31 29 16 27 24 23 24 27
Wind_Direction
260 259 254 245 236 231 229 222 219 211 205 205 205 207 207 206 205 198 199 193 190 189 175 171 164 201 217 171 97 83 87 36 216 245 175 239 221 216 206 217 210 212 219 187 156
256 255 255 251 242 232 228 229 225 221 214 210 208 209 205 207 216 209 207 207 207 189 177 177 149 222 213 105 72 115 305 249 203 257 225 219 212 217 217 217 227 217 217 208 190
264 255 252 250 249 239 231 228 231 228 223 215 210 209 211 216 218 219 214 214 213 202 191 179 157 188 131 38 13 118 309 223 239 194 175 182 193 195 229 234 230 231 223 221 218
264 259 257 251 247 245 238 233 229 231 230 225 216 217 216 210 214 213 217 215 215 216 206 196 174 173 76 46 223 147 259 183 185 190 176 166 161 210 199 247 241 235 232 221 223
265 264 258 254 251 245 242 237 233 230 229 230 229 223 219 220 224 215 222 218 216 215 210 206 187 167 219 163 172 147 220 225 209 192 173 167 198 256 240 247 237 225 222 220 213
258 255 257 257 252 248 244 241 237 233 231 228 228 232 230 225 227 219 220 220 217 214 213 208 197 182 188 181 202 190 217 235 235 194 150 125 330 320 299 284 263 245 229 212 211
255 254 253 249 250 252 246 242 240 236 234 232 230 227 230 224 229 227 224 220 217 215 212 212 199 189 191 187 210 199 185 228 248 213 158 58 344 316 312 299 287 257 240 220 211
257 254 251 249 248 245 246 243 239 239 235 234 232 232 232 228 228 229 227 223 219 217 215 214 210 195 194 195 197 186 198 287 268 262 205 96 258 308 315 295 279 274 251 228 206
259 256 252 250 247 245 243 241 239 238 236 234 233 233 230 231 228 227 229 223 223 219 217 219 213 208 196 189 201 240 201 250 187 287 245 202 360 275 296 294 272 273 271 239 219
261 256 253 251 247 245 243 240 238 236 235 233 234 233 232 229 224 226 228 224 224 222 220 221 220 212 196 200 171 216 241 231 223 286 242 256 267 282 290 290 282 256 265 236 208
276 269 260 255 250 246 243 241 238 239 233 233 233 231 231 229 227 225 226 225 222 223 220 218 225 209 195 193 205 243 184 205 268 268 265 259 249 274 277 276 279 259 234 214 189
303 291 284 279 264 251 247 244 240 238 233 233 232 228 234 227 225 225 225 224 224 222 221 219 222 206 207 213 221 254 201 208 235 252 277 247 273 278 291 273 273 256 219 211 195
311 305 298 291 291 271 257 251 246 240 236 234 231 227 230 229 224 225 225 224 225 222 220 223 220 215 214 216 224 222 219 242 249 263 275 272 259 298 284 271 264 241 210 199 189
299 293 286 283 283 281 277 261 252 247 239 233 235 229 226 227 224 225 225 224 224 220 219 226 221 223 216 218 219 220 228 224 235 242 256 257 256 231 296 257 241 204 192 187 189
296 295 292 288 286 278 274 269 261 253 247 239 233 231 227 226 222 226 225 224 224 221 219 220 220 219 221 215 215 219 214 243 251 240 244 282 287 236 278 244 231 208 189 191 188
296 291 290 287 287 282 271 266 259 257 249 241 234 229 228 224 221 226 223 221 221 223 221 221 221 222 220 209 213 214 211 235 241 241 249 246 236 241 257 272 233 214 198 197 198
294 295 292 287 284 281 273 263 256 258 251 239 242 231 226 222 220 222 222 223 222 221 218 217 218 216 213 218 214 208 211 228 234 235 249 239 233 214 183 225 246 222 206 198 202
308 308 316 303 291 283 273 264 255 250 238 239 240 231 226 220 219 219 220 219 219 222 223 223 219 215 213 214 210 210 208 219 224 233 248 248 208 219 256 222 226 223 212 196 194
312 315 309 301 293 279 270 261 252 243 218 231 237 232 220 217 217 218 219 220 221 221 218 223 220 225 224 219 213 211 211 212 224 236 256 237 208 211 233 238 230 225 213 198 192
311 305 309 304 292 283 266 257 245 239 239 238 233 228 217 212 217 217 214 216 216 218 217 210 227 218 226 222 219 211 218 211 213 230 257 232 202 223 240 221 250 222 217 203 195
312 311 314 300 292 270 257 250 239 240 234 230 226 225 221 204 215 205 209 216 211 209 212 210 211 217 215 220 217 212 211 218 220 224 248 234 182 212 206 227 240 225 219 209 201
313 311 314 297 291 286 255 235 246 240 233 230 227 226 229 221 218 203 195 213 212 212 211 206 207 211 217 221 217 218 215 211 216 215 224 228 206 218 223 240 242 224 227 220 202
316 315 314 295 292 271 256 246 238 233 234 231 227 227 227 228 224 210 195 209 210 206 211 209 207 211 198 219 215 217 213 214 218 217 225 239 206 161 220 241 250 223 225 203 195
320 319 316 302 289 254 245 246 240 234 234 231 229 227 226 227 226 216 208 209 211 208 209 209 213 201 211 210 213 215 209 213 209 218 217 226 219 203 207 237 243 221 208 196 193
326 326 315 302 288 254 248 248 253 253 243 239 239 240 235 226 223 211 212 208 206 210 208 209 213 215 210 210 217 220 216 211 212 211 214 201 235 148 215 236 233 225 204 197 193
332 327 315 305 287 259 256 255 254 261 260 253 242 240 235 216 212 208 212 210 207 209 204 208 208 208 212 194 207 219 221 214 215 213 212 212 198 240 195 228 229 237 206 201 201
336 330 314 312 289 271 267 265 259 263 259 250 245 240 232 218 207 200 205 204 202 205 203 206 205 208 208 205 200 215 214 217 215 216 214 212 206 185 250 190 212 221 214 212 206